Location: *
(57.8420°S, 159.8600°W)
Time: 10:55:57
(UTC+00:00)

IRIDIUM 103 - Pass Details

Date: 18 May 2021
Orbit: 776 x 779 km, 86.4° (Epoch: 22 June)

Event Time Altitude Azimuth Distance (km) Brightness Sun altitude
Rises 03:41:27 0° 186° (S) 3,308 7.4 -9.5°
Reaches altitude 10° 03:43:51 10° 182° (S) 2,374 6.7 -9.8°
Maximum altitude 03:49:10 68° 99° (E) 856 4.3 -10.5°
Drops below altitude 10° 03:54:25 10° 15° (NNE) 2,349 6.9 -11.2°
Sets 03:56:47 0° 12° (NNE) 3,270 7.7 -11.5°
